Red Bluff, CA

11:57 PM PST on December 12, 2017 (GMT -0800)
Red Bluff Municipal

Weather History for KRBL - November, 2013

Change the Weather History Date:

Friday, November 1, 2013

  Actual Average Record
Temperature  
Mean Temperature 58 °F -  
Max Temperature 75 °F 71 °F 93 °F (1949)
Min Temperature 41 °F 46 °F 33 °F (1943)
Degree Days  
Heating Degree Days 7    
Growing Degree Days 8 (Base 50)    
Moisture  
Dew Point 40 °F    
Average Humidity 55    
Maximum Humidity 82    
Minimum Humidity 18    
Precipitation  
Precipitation 0.00 in - - ()
Sea Level Pressure  
Sea Level Pressure 30.10 in    
Wind  
Wind Speed 3 mph (NW)    
Max Wind Speed 7 mph    
Max Gust Speed -    
Visibility 10 miles    
Events      
Averages and records for this station are not official NWS values.
T = Trace of Precipitation, MM = Missing Value Source: NWS Daily Summary

Daily Weather History Graph

Daily Weather History Graph

Search for Another Location

Airport or City:

Trip Planner

Search our weather history database for the weather conditions in past years. The results will help you decide how hot, cold, wet, or windy it might be!

Date:

Astronomy

Nov. 01, 2013 Rise Set
Actual Time 7:38 AM PDT 6:05 PM PDT
Civil Twilight 7:10 AM PDT 6:34 PM PDT
Nautical Twilight 6:38 AM PDT 7:06 PM PDT
Astronomical Twilight 6:06 AM PDT 7:37 PM PDT
Moon 5:36 AM PDT (11/1) 5:02 PM PDT (11/1)
Length of Visible Light 11h 23m
Length of Day
10h 27m
Waning Crescent, 4% of the Moon is Illuminated
Nov 1
Waning Crescent
Nov 3
New
Nov 9
First Quarter
Nov 17
Full
Nov 25
Last Quarter

Hourly Weather History & Observations

Time (PDT) Temp. Windchill Dew Point Humidity Pressure Visibility Wind Dir Wind Speed Gust Speed Precip Events Conditions
12:54 AM 46.0 °F 43.9 °F 37.9 °F 73% 30.13 in 10.0 mi NW 4.6 mph - N/A   Clear
1:54 AM 46.9 °F - 37.9 °F 71% 30.14 in 10.0 mi NW 5.8 mph - N/A   Clear
2:54 AM 46.0 °F 43.1 °F 39.0 °F 76% 30.13 in 10.0 mi NW 5.8 mph - N/A   Clear
3:54 AM 46.9 °F - 39.0 °F 74% 30.13 in 10.0 mi NW 5.8 mph - N/A   Clear
4:54 AM 46.9 °F - 39.0 °F 74% 30.13 in 10.0 mi NNW 4.6 mph - N/A   Clear
5:54 AM 46.0 °F 43.9 °F 39.0 °F 76% 30.14 in 10.0 mi North 4.6 mph - N/A   Clear
6:54 AM 44.1 °F - 37.9 °F 79% 30.15 in 10.0 mi Calm Calm - N/A   Clear
7:54 AM 42.1 °F - 37.0 °F 82% 30.17 in 10.0 mi Calm Calm - N/A   Clear
8:54 AM 46.9 °F - 39.0 °F 74% 30.19 in 10.0 mi Calm Calm - N/A   Clear
9:54 AM 55.0 °F - 41.0 °F 59% 30.19 in 10.0 mi Calm Calm - N/A   Clear
10:54 AM 62.1 °F - 42.1 °F 48% 30.18 in 10.0 mi Calm Calm - N/A   Clear
11:54 AM 66.0 °F - 42.1 °F 42% 30.17 in 10.0 mi Variable 3.5 mph - N/A   Clear
12:54 PM 70.0 °F - 42.1 °F 36% 30.14 in 10.0 mi NE 3.5 mph - N/A   Clear
1:54 PM 73.0 °F - 42.1 °F 33% 30.10 in 10.0 mi Calm Calm - N/A   Clear
2:54 PM 73.9 °F - 41.0 °F 30% 30.08 in 10.0 mi Variable 4.6 mph - N/A   Clear
3:54 PM 75.0 °F - 39.9 °F 28% 30.06 in 10.0 mi South 6.9 mph - N/A   Clear
4:54 PM 75.0 °F - 39.9 °F 28% 30.05 in 10.0 mi SSE 4.6 mph - N/A   Clear
5:54 PM 71.1 °F - 39.9 °F 32% 30.04 in 10.0 mi Calm Calm - N/A   Clear
6:54 PM 66.0 °F - 42.1 °F 42% 30.04 in 10.0 mi Calm Calm - N/A   Clear
7:54 PM 59.0 °F - 42.1 °F 53% 30.02 in 10.0 mi Calm Calm - N/A   Clear
8:54 PM 55.0 °F - 41.0 °F 59% 30.02 in 10.0 mi NW 3.5 mph - N/A   Clear
9:54 PM 52.0 °F - 39.9 °F 63% 30.03 in 10.0 mi WNW 3.5 mph - N/A   Clear
10:54 PM 50.0 °F - 39.0 °F 66% 30.04 in 10.0 mi Calm Calm - N/A   Clear
11:54 PM 48.9 °F - 39.0 °F 69% 30.03 in 10.0 mi NW 5.8 mph - N/A   Clear